Regional Weather Roundup
Issued by NWS

Home | Current Version | Previous Version | Graphics & Text | Print | Product List | Glossary On
Versions: 1 2 3 4 5 6 7 8 9 10 11 12 13 14 15 16 17 18 19 20 21 22 23 24 25 26 27 28 29 30 31 32 33 34 35 36 37 38 39 40 41 42 43 44 45 46 47 48 49 50
000
ASUS43 KLSX 272307
RWRMO

WEATHER SUMMARY FOR MISSOURI
NATIONAL WEATHER SERVICE SPRINGFIELD MO
600 PM CDT SUN JUL 27 2014

NOTE: "FAIR" INDICATES FEW OR NO CLOUDS BELOW 12,000 FEET WITH NO
       SIGNIFICANT WEATHER AND/OR OBSTRUCTIONS TO VISIBILITY.
       CURRENT SKY AND/OR WEATHER CONDITIONS ARE NOT AVAILABLE FOR
       CHILLICOTHE AND FARMINGTON.

MOZ001>031-035>038-043-044-053-054-280000-
...NORTHERN AND WESTERN MISSOURI...

CITY           SKY/WX    TMP DP  RH WIND       PRES   REMARKS
KANSAS CTY INT MOSUNNY   83  58  42 NW15G26   30.06S
KANSAS C DTWN  SUNNY     86  56  35 NW12G24   30.04R
LEE`S SUMMIT   MOSUNNY   85  56  37 NW15G22   30.06R
ST JOSEPH      MOSUNNY   83  60  45 N17       30.06S
CHILLICOTHE      N/A     84  56  38 N8G21     30.03R
KIRKSVILLE     MOSUNNY   79  58  48 N14G24    30.01R

$$
MOZ066>068-077>081-088>096-101>105-280000-
...SOUTHWEST MISSOURI...

CITY           SKY/WX    TMP DP  RH WIND       PRES   REMARKS
SPRINGFIELD    CLOUDY    86  63  45 W8        30.04F
JOPLIN         CLOUDY    84  69  60 W9        30.06F

$$
MOZ032>034-039>042-045>050-055>058-069>072-280000-
...CENTRAL MISSOURI...

CITY           SKY/WX    TMP DP  RH WIND       PRES   REMARKS
COLUMBIA       SUNNY     86  56  35 NW20G29   29.99R
JEFFERSON CITY SUNNY     86  56  35 W14G23    29.97R
ROLLA          MOSUNNY   87  54  32 W18G24    29.97R
SEDALIA        SUNNY     85  58  39 NW10      30.03R
WHITEMAN AFB   MOSUNNY   86  41  20 N14       30.02S
OSAGE BEACH      N/A     88  55  33 NW8G17    30.00R

$$
MOZ051-052-059>065-280000-
...EAST CENTRAL MISSOURI...

CITY           SKY/WX    TMP DP  RH WIND       PRES   REMARKS
ST LOUIS INTL  MOSUNNY   89  56  32 NW20G30   29.91R
SPIRIT OF STL  MOSUNNY   89  55  31 NW17G23   29.90R
ST CHARLES     SUNNY     86  59  39 NW12G20   29.90R

$$
MOZ072>076-082>087-097>100-106>115-280000-
...SOUTH CENTRAL AND SOUTHEAST MISSOURI...

CITY           SKY/WX    TMP DP  RH WIND       PRES   REMARKS
CAPE GIRARDEAU PTSUNNY   89  72  56 W8        29.86S HX  96
FARMINGTON     MOSUNNY   90  61  37 W12G18    29.94R
POPLAR BLUFF   PTSUNNY   91  72  53 NW8       29.88R HX  98
WEST PLAINS    CLOUDY    87  63  44 NW7       30.01R

$$



USA.gov is the U.S. government's official web portal to all federal, state and local government web resources and services.